Starlink 1548

operational
NORAD ID: 46054 Int'l Des: 2020-055 Owner: SPXS Country: US Constellation: starlink
LEOCIRCULARSTARLINK_TYPE

Über Starlink 1548

Beschreibung wird geladen...

Live-Position

3D-Globus wird geladen...

Nächste Überflüge

Höhenverlauf

Altitude vs Time

uPlot chart will show altitude changes over time

Zweizeiliger Elementsatz

1 46054U 20055AD 25346.71586392 .00000065 00000-0 23218-4 0 9993
2 46054 53.0551 147.0572 0001024 90.5682 269.5424 15.06393176295923
Epoch: 12. Dez. 2025 • Age: 21 hours

Aktueller Status

Höhe 549.0 km
Geschwindigkeit 7.59 km/s
Subsatellitenpunkt 33.45°N, 6.33°W
Startdatum 7. Aug. 2020
Alter 5.3 years
Typ internet

Technische Details

Klassifizierung Payload
Masse 260.00 kg
Trockenmasse 248.00 kg
Gesamtmasse 260.00 kg
Länge 0.20 m
Durchmesser 2.80 m
Spannweite 9.00 m
Form Box + pan
Hersteller SPXS
Bus-Typ Starlink
Phasenstatus In Orbit
Besitzer/Staat SPXS/US

Große Konstellationen

Loading constellations...